Regional Weather Roundup
Issued by NWS

Home | Current Version | Previous Version | Graphics & Text | Print | Product List | Glossary On
Versions: 1 2 3 4 5 6 7 8 9 10 11 12 13 14 15 16 17 18 19 20 21 22 23 24 25 26 27 28 29 30 31 32 33 34 35 36 37 38 39 40 41 42 43 44 45 46 47 48 49 50
000
ASUS43 KBIS 200110
RWRND

NORTH DAKOTA REGIONAL WEATHER ROUNDUP
NATIONAL WEATHER SERVICE BISMARCK ND
800 PM CDT THU OCT 19 2017

NOTE: "FAIR" INDICATES FEW OR NO CLOUDS BELOW 12,000 FEET WITH NO
SIGNIFICANT WEATHER AND/OR OBSTRUCTIONS TO VISIBILITY.


NDZ001>003-009>011-017-200200-
NORTHWEST NORTH DAKOTA

CITY           SKY/WX    TMP DP  RH WIND       PRES   REMARKS
WILLISTON      CLEAR     56  34  43 E3        29.61F
MINOT          CLEAR     60  34  37 E3        29.64S
MINOT AFB      CLEAR     55  32  41 S10       29.62S
$$

NDZ018>021-031>035-040>046-200200-
SOUTHWEST NORTH DAKOTA

CITY           SKY/WX    TMP DP  RH WIND       PRES   REMARKS
BISMARCK       CLEAR     60  39  45 S10       29.70S
DICKINSON      CLOUDY    61  31  32 S8        29.67S
GARRISON         N/A     60  35  39 E3        29.66F
HETTINGER ARPT CLOUDY    61  25  25 SE6       29.72S
$$

NDZ004>008-012>016-024-026-027-054-200200-
NORTHEAST NORTH DAKOTA

CITY           SKY/WX    TMP DP  RH WIND       PRES   REMARKS
GRAND FORKS    PTCLDY    60  41  49 S13       29.70F
GRND FRKS AFB  CLEAR     62  40  44 SW8       29.70F
DEVILS LAKE    CLEAR     56  41  57 SE8       29.70S
$$

NDZ022-023-025-028>030-036>039-047>053-200200-
SOUTHEAST NORTH DAKOTA

CITY           SKY/WX    TMP DP  RH WIND       PRES   REMARKS
FARGO          CLEAR     63  42  46 S9        29.76S
JAMESTOWN      CLEAR     55  41  59 S9        29.73F
$$




USA.gov is the U.S. government's official web portal to all federal, state and local government web resources and services.